STARLINK-32564, 61924

Orbit data source: Space-Track

STARLINK-32564, 61924 is a payload satellite owned by SpaceX/Seattle (US) in LEO that was launched on Mon, 11 Nov 2024 UTC via an FALCON 9 launch vehicle from the Air Force Eastern Test Range (AFETR). Payload-class satellites include a variety of spacecraft equipped with specific instruments for various scientific and technological missions. These include communications satellites like Starlink; space stations such as the ISS; scientific satellites like the Hubble; Earth observation satellites from companies like Planet Labs, Umbra, and HawkEye 360; GPS; miniature CubeSats for education and research; and military/defense satellites.

Loading next visibility...
Identifier
61924, 2024-207N
Orbit
LEO
Country
Flag of USUS
Related business
Manufacturer
SpaceX/Seattle
Mission
Operational Commercial Communications
Bus & Motor
STARLINK V2M, Unknown motor
Mass
730 kg wet, ~700 kg dry
Launch date (UTC)
2024-11-11 (2 years ago)
Launch vehicle
FALCON 9
Launch site
Air Force Eastern Test Range (AFETR)
Object type
Payload
Rocket body
Debris
Shape & HBR
Box + 2 Pan, 17.7 m
Radar Cross Section
33.884 m², Large (>1 m²)

Expand to show TLE details & history
Last TLE update: 1 day ago

TLE from 1 day ago
0 STARLINK-32564
1 61924U 24207N   26206.10484697  .00023603  00000-0  86455-3 0  9997
2 61924  43.0011 229.5206 0001210 213.5195 146.5581 15.27578188 95690
Epoch: 2026-07-25T02:30Z
TLE epoch observation values (Epoch: 2026-07-25T02:30:58.778Z)
Latitude
0.00005°
Longitude
-111.04617°
Altitude
483.523 km
Speed
7.625 km/s
True Right ascension
15h 18m 04s
True Declination
0° 00' 00"
Sunlit
Object was in daylight at epoch
Visualization orbit readout
Latitude
Unknown
Longitude
Unknown
Altitude
Unknown
Speed
Unknown
Apparent Right ascension
Unknown
Apparent Declination
Unknown
Sunlit
N/A
Visualization observer readout
Local Sidereal Time
23:12:13
Azimuth
Unknown
Elevation
Unknown
Doppler factor
Unknown
Orbital elements
Apogee altitude
485.83 km
Perigee altitude
484.169 km
Semi-major axis
6,863.137 km
Eccentricity
0.00012
Inclination
43.0011°
RAAN
229.5206°
Arg. of periapsis
213.5195°
True anomaly
146.56574°
Mean anomaly
146.5581°
Eccentric anomaly
146.56192°
Mean motion
3.81733 °/min
Orbital period
94.31 mins
BSTAR
0.00086455
Loading maneuver chart data...
Computing Atmospheric mass density...
Loading historical data...
Loading historical data...
Loading historical data...
Loading historical data...
Loading historical data...
Loading historical data...
Loading historical data...

Documentation

Showing up to 5 results
|